Total_Precipitation_Accumulation
0.00 0.00 0.02 0.03 0.03 0.05 0.05 0.03 0.03 0.07 0.12 0.12 0.10 0.11 0.15 0.18 0.20 0.18 0.15 0.12 0.10 0.09 0.09 0.09 0.08 0.06 0.06
0.00 0.00 0.00 0.01 0.01 0.03 0.04 0.06 0.05 0.04 0.08 0.09 0.08 0.09 0.12 0.13 0.14 0.17 0.22 0.22 0.16 0.12 0.10 0.09 0.09 0.08 0.06
0.01 0.00 0.00 0.00 0.02 0.03 0.03 0.04 0.04 0.07 0.11 0.13 0.12 0.11 0.10 0.12 0.16 0.20 0.25 0.31 0.35 0.31 0.29 0.28 0.24 0.20 0.15
0.01 0.01 0.01 0.01 0.02 0.03 0.04 0.04 0.03 0.02 0.05 0.11 0.13 0.13 0.13 0.15 0.18 0.23 0.25 0.31 0.44 0.49 0.51 0.48 0.39 0.30 0.22
0.01 0.01 0.01 0.03 0.04 0.04 0.04 0.02 0.01 0.01 0.04 0.09 0.09 0.07 0.07 0.15 0.25 0.28 0.29 0.33 0.42 0.58 0.67 0.72 0.73 0.59 0.38
0.01 0.01 0.01 0.01 0.02 0.05 0.04 0.03 0.03 0.01 0.02 0.03 0.04 0.06 0.08 0.15 0.22 0.22 0.26 0.35 0.40 0.47 0.51 0.48 0.43 0.40 0.33
0.01 0.01 0.02 0.04 0.07 0.04 0.03 0.04 0.03 0.02 0.04 0.05 0.06 0.07 0.11 0.15 0.22 0.27 0.33 0.41 0.47 0.49 0.46 0.43 0.40 0.32 0.25
0.02 0.05 0.08 0.05 0.03 0.02 0.02 0.03 0.02 0.02 0.05 0.06 0.05 0.07 0.07 0.15 0.28 0.21 0.24 0.31 0.38 0.41 0.39 0.34 0.31 0.27 0.21
0.07 0.07 0.03 0.01 0.02 0.07 0.09 0.10 0.07 0.02 0.04 0.06 0.08 0.08 0.10 0.17 0.33 0.34 0.29 0.33 0.36 0.33 0.28 0.23 0.20 0.17 0.13
0.01 0.00 0.01 0.02 0.05 0.10 0.14 0.19 0.12 0.11 0.05 0.09 0.11 0.10 0.14 0.16 0.33 0.42 0.38 0.36 0.31 0.26 0.21 0.17 0.15 0.11 0.06
0.00 0.00 0.00 0.00 0.02 0.03 0.05 0.16 0.17 0.14 0.09 0.21 0.20 0.15 0.20 0.22 0.36 0.44 0.35 0.32 0.25 0.21 0.16 0.11 0.08 0.05 0.04
0.01 0.01 0.00 0.00 0.01 0.01 0.03 0.08 0.14 0.17 0.10 0.15 0.18 0.16 0.21 0.33 0.39 0.41 0.33 0.24 0.17 0.12 0.08 0.07 0.06 0.04 0.01
0.03 0.01 0.01 0.01 0.02 0.03 0.09 0.15 0.17 0.20 0.20 0.21 0.24 0.33 0.37 0.36 0.31 0.30 0.25 0.19 0.14 0.09 0.07 0.05 0.03 0.02 0.01
0.07 0.02 0.01 0.02 0.03 0.08 0.16 0.20 0.21 0.21 0.22 0.29 0.33 0.31 0.26 0.25 0.22 0.22 0.19 0.15 0.11 0.07 0.03 0.01 0.00 0.00 0.00
0.05 0.04 0.03 0.04 0.06 0.14 0.24 0.30 0.26 0.24 0.26 0.27 0.20 0.14 0.13 0.13 0.16 0.15 0.11 0.07 0.04 0.02 0.01 0.00 0.00 0.00 0.00
0.06 0.05 0.07 0.07 0.10 0.16 0.27 0.31 0.29 0.27 0.27 0.23 0.15 0.09 0.08 0.06 0.06 0.06 0.03 0.02 0.01 0.00 0.00 0.00 0.00 0.00 0.00
0.12 0.11 0.10 0.09 0.14 0.19 0.29 0.29 0.30 0.27 0.17 0.10 0.06 0.04 0.03 0.02 0.01 0.00 0.00 0.00 0.00 0.00 0.00 0.00 0.00 0.00 0.00